Nampa, ID

10:20 AM MST on December 05, 2019 (GMT -0700)
Nampa

Weather History for KMAN - October, 2019

Change the Weather History Date:

Monday, October 14, 2019

  Actual Average (KBOI) Record (KBOI)
Temperature  
Mean Temperature 46 °F -  
Max Temperature 64 °F 64 °F 86 °F (2005)
Min Temperature 28 °F 37 °F 21 °F (1966)
Degree Days  
Heating Degree Days 19    
Moisture  
Dew Point 33 °F    
Average Humidity 69    
Maximum Humidity 100    
Minimum Humidity 34    
Precipitation  
Precipitation 0.00 in - - ()
Sea Level Pressure  
Sea Level Pressure 30.02 in    
Wind  
Wind Speed 2 mph (NNW)    
Max Wind Speed 9 mph    
Max Gust Speed 14 mph    
Visibility 10 miles    
Events      
Averages and records for this station are not official NWS values.
T = Trace of Precipitation, MM = Missing Value Source: NWS Daily Summary

Daily Weather History Graph

Daily Weather History Graph

Search for Another Location

Airport or City:

Astronomy

Oct. 14, 2019 Rise Set
Actual Time 7:58 AM MDT 7:04 PM MDT
Civil Twilight 7:29 AM MDT 7:33 PM MDT
Nautical Twilight 6:56 AM MDT 8:06 PM MDT
Astronomical Twilight 6:23 AM MDT 8:39 PM MDT
Moon 7:56 PM MDT (10/14) 8:34 AM MDT (10/14)
Length of Visible Light 12h 03m
Length of Day
11h 05m
Full, 99% of the Moon is Illuminated
Oct 14
Full
Oct 21
Last Quarter
Oct 27
New
Nov 4
First Quarter
Nov 12
Full

Hourly Weather History & Observations

Time (MDT) Temp. Windchill Dew Point Humidity Pressure Visibility Wind Dir Wind Speed Gust Speed Precip Events Conditions
12:15 AM 37.4 °F - 30.2 °F 75% 29.91 in 9.0 mi Calm Calm - N/A   Partly Cloudy
12:35 AM 33.8 °F - 30.2 °F 87% 29.92 in 10.0 mi Calm Calm - N/A   Partly Cloudy
12:55 AM 33.8 °F - 30.2 °F 87% 29.92 in 10.0 mi Calm Calm - N/A   Unknown
1:15 AM 33.8 °F - 33.8 °F 100% 29.92 in 10.0 mi Calm Calm - N/A   Unknown
1:35 AM 33.8 °F - 30.2 °F 87% 29.92 in 10.0 mi Calm Calm - N/A   Unknown
1:55 AM 33.8 °F - 32.0 °F 93% 29.92 in 10.0 mi Calm Calm - N/A   Unknown
2:15 AM 33.8 °F - 32.0 °F 93% 29.93 in 10.0 mi Calm Calm - N/A   Unknown
2:35 AM 32.0 °F - 30.2 °F 93% 29.93 in 10.0 mi Calm Calm - N/A   Unknown
2:55 AM 32.0 °F - 32.0 °F 100% 29.94 in 8.0 mi Calm Calm - N/A   Unknown
3:15 AM 30.2 °F - 30.2 °F 100% 29.94 in 10.0 mi Calm Calm - N/A   Scattered Clouds
3:35 AM 30.2 °F - 30.2 °F 100% 29.94 in 10.0 mi Calm Calm - N/A   Partly Cloudy
3:55 AM 30.2 °F - 30.2 °F 100% 29.95 in 10.0 mi Calm Calm - N/A   Scattered Clouds
4:15 AM 30.2 °F - 28.4 °F 93% 29.95 in 10.0 mi Calm Calm - N/A   Partly Cloudy
4:35 AM 30.2 °F - 30.2 °F 100% 29.95 in 10.0 mi Calm Calm - N/A   Clear
4:55 AM 30.2 °F - 30.2 °F 100% 29.96 in 8.0 mi Calm Calm - N/A   Clear
5:15 AM 30.2 °F - 30.2 °F 100% 29.96 in 10.0 mi Calm Calm - N/A   Clear
5:35 AM 30.2 °F - 28.4 °F 93% 29.97 in 10.0 mi Calm Calm - N/A   Partly Cloudy
6:15 AM 28.4 °F - 28.4 °F 100% 29.98 in 9.0 mi Calm Calm - N/A   Mostly Cloudy
6:35 AM 28.4 °F - 28.4 °F 100% 29.98 in 10.0 mi Calm Calm - N/A   Mostly Cloudy
6:55 AM 28.4 °F - 28.4 °F 100% 29.99 in 10.0 mi Calm Calm - N/A   Scattered Clouds
7:15 AM 28.4 °F - 28.4 °F 100% 29.99 in 10.0 mi Calm Calm - N/A   Partly Cloudy
7:35 AM 28.4 °F - 28.4 °F 100% 30.00 in 10.0 mi Calm Calm - N/A   Unknown
7:55 AM 30.2 °F - 30.2 °F 100% 30.01 in 7.0 mi Calm Calm - N/A   Clear
8:15 AM 30.2 °F - 30.2 °F 100% 30.02 in 7.0 mi Calm Calm - N/A   Clear
8:35 AM 30.2 °F - 30.2 °F 100% 30.02 in 6.0 mi Calm Calm - N/A   Clear
8:55 AM 32.0 °F - 28.4 °F 87% 30.03 in 8.0 mi Calm Calm - N/A   Clear
9:15 AM 35.6 °F - 28.4 °F 75% 30.04 in 8.0 mi Calm Calm - N/A   Clear
9:35 AM 37.4 °F - 28.4 °F 70% 30.05 in 10.0 mi Calm Calm - N/A   Clear
9:55 AM 39.2 °F - 30.2 °F 70% 30.06 in 9.0 mi Calm Calm - N/A   Clear
10:15 AM 41.0 °F - 30.2 °F 65% 30.06 in 7.0 mi Calm Calm - N/A   Clear
10:35 AM 44.6 °F - 30.2 °F 57% 30.06 in 7.0 mi Calm Calm - N/A   Clear
10:55 AM 46.4 °F 45.2 °F 30.2 °F 53% 30.06 in 8.0 mi Variable 3.5 mph - N/A   Clear
11:15 AM 50.0 °F - 32.0 °F 50% 30.06 in 10.0 mi NW 6.9 mph - N/A   Clear
11:35 AM 50.0 °F - 33.8 °F 54% 30.07 in 10.0 mi NW 8.1 mph - N/A   Clear
11:55 AM 51.8 °F - 33.8 °F 50% 30.06 in 10.0 mi Variable 6.9 mph - N/A   Clear
12:15 PM 53.6 °F - 33.8 °F 47% 30.07 in 10.0 mi NW 5.8 mph - N/A   Clear
12:35 PM 55.4 °F - 32.0 °F 41% 30.06 in 10.0 mi NNW 6.9 mph - N/A   Clear
12:55 PM 57.2 °F - 32.0 °F 38% 30.06 in 10.0 mi WNW 5.8 mph - N/A   Clear
1:15 PM 57.2 °F - 33.8 °F 41% 30.06 in 10.0 mi Calm Calm - N/A   Clear
1:35 PM 59.0 °F - 33.8 °F 39% 30.05 in 10.0 mi North 6.9 mph - N/A   Clear
1:55 PM 60.8 °F - 35.6 °F 39% 30.05 in 10.0 mi North 8.1 mph - N/A   Clear
2:15 PM 60.8 °F - 35.6 °F 39% 30.04 in 10.0 mi North 5.8 mph - N/A   Clear
2:35 PM 62.6 °F - 35.6 °F 37% 30.04 in 10.0 mi NW 9.2 mph - N/A   Clear
2:55 PM 62.6 °F - 35.6 °F 37% 30.03 in 10.0 mi NW 4.6 mph 13.8 mph N/A   Clear
3:15 PM 62.6 °F - 35.6 °F 37% 30.03 in 10.0 mi NNW 6.9 mph - N/A   Clear
3:35 PM 62.6 °F - 35.6 °F 37% 30.02 in 10.0 mi North 9.2 mph - N/A   Clear
3:55 PM 62.6 °F - 35.6 °F 37% 30.02 in 10.0 mi NNW 9.2 mph - N/A   Clear
4:15 PM 64.4 °F - 35.6 °F 34% 30.02 in 10.0 mi NNW 9.2 mph - N/A   Clear
4:35 PM 62.6 °F - 35.6 °F 37% 30.02 in 10.0 mi North 8.1 mph 13.8 mph N/A   Clear
4:55 PM 64.4 °F - 35.6 °F 34% 30.03 in 10.0 mi North 6.9 mph - N/A   Clear
5:15 PM 62.6 °F - 35.6 °F 37% 30.03 in 10.0 mi North 9.2 mph - N/A   Clear
5:35 PM 62.6 °F - 35.6 °F 37% 30.03 in 10.0 mi North 9.2 mph - N/A   Clear
5:55 PM 62.6 °F - 35.6 °F 37% 30.04 in 10.0 mi North 5.8 mph - N/A   Clear
6:15 PM 60.8 °F - 35.6 °F 39% 30.04 in 10.0 mi North 6.9 mph - N/A   Clear
6:35 PM 60.8 °F - 35.6 °F 39% 30.03 in 10.0 mi North 4.6 mph - N/A   Clear
6:55 PM 59.0 °F - 35.6 °F 42% 30.03 in 10.0 mi Calm Calm - N/A   Clear
7:15 PM 59.0 °F - 35.6 °F 42% 30.03 in 10.0 mi Calm Calm - N/A   Clear
7:35 PM 53.6 °F - 37.4 °F 54% 30.05 in 10.0 mi Calm Calm - N/A   Clear
7:55 PM 51.8 °F - 37.4 °F 58% 30.05 in 10.0 mi Calm Calm - N/A   Unknown
8:15 PM 51.8 °F - 37.4 °F 58% 30.05 in 10.0 mi Calm Calm - N/A   Unknown
8:35 PM 50.0 °F - 37.4 °F 62% 30.06 in 10.0 mi Calm Calm - N/A   Unknown
9:35 PM 46.4 °F - 37.4 °F 71% 30.07 in 10.0 mi Calm Calm - N/A   Unknown
9:55 PM 42.8 °F - 37.4 °F 81% 30.07 in 10.0 mi Calm Calm - N/A   Unknown
10:15 PM 42.8 °F - 37.4 °F 81% 30.08 in 10.0 mi Calm Calm - N/A   Unknown
10:35 PM 41.0 °F - 37.4 °F 87% 30.08 in 10.0 mi Calm Calm - N/A   Unknown
10:55 PM 42.8 °F 41.1 °F 37.4 °F 81% 30.09 in 10.0 mi East 3.5 mph - N/A   Clear
11:15 PM 42.8 °F - 37.4 °F 81% 30.10 in 10.0 mi Calm Calm - N/A   Unknown
11:35 PM 41.0 °F - 37.4 °F 87% 30.10 in 9.0 mi Calm Calm - N/A   Unknown
11:55 PM 39.2 °F - 35.6 °F 87% 30.11 in 10.0 mi Calm Calm - N/A   Clear